Regional Weather Roundup
Issued by NWS

Home | Current Version | Previous Version | Text Only | Print | Product List | Glossary Off
Versions: 1 2 3 4 5 6 7 8 9 10 11 12 13 14 15 16 17 18 19 20 21 22 23 24 25 26 27 28 29 30 31 32 33 34 35 36 37 38 39 40 41 42 43 44 45 46 47 48 49 50

000
ASUS43 KMKX 071421
RWRWI

WISCONSIN REGIONAL WEATHER ROUNDUP
NATIONAL WEATHER SERVICE MILWAUKEE/SULLIVAN WI
800 AM CST WED DEC 07 2016

NOTE: "FAIR" INDICATES FEW OR NO CLOUDS BELOW 12,000 FEET WITH NO
SIGNIFICANT WEATHER AND/OR OBSTRUCTIONS TO VISIBILITY.

WIZ001-002-006>008-014>016-023>028-071500-
NORTHWEST WISCONSIN

CITY           SKY/WX    TMP DP  RH WIND       PRES   REMARKS
SUPERIOR ARPT  CLOUDY    18  12  79 SW15G23   29.80R WCI   3
ASHLAND        LGT SNOW  18  13  80 SW17G25   29.77R WCI   3
HAYWARD        SNOW      16  10  77 SW13G22   29.82R VSB 1/2 WCI   2
SIREN          FLURRIES  16  10  75 W15G28    29.88R WCI   1
CUMBERLAND     FLURRIES  18  10  73 W13G22    29.87R WCI   4
RICE LAKE      FLURRIES  17  11  75 SW17G26   29.90R WCI   2
CHETEK         FLURRIES  17  11  78 MISG      29.90R
LADYSMITH      LGT SNOW  18  12  79 SW17G25   29.87R WCI   2
EAU CLAIRE     CLOUDY    16  10  77 SW15      29.95R WCI   1
MENOMONIE      FLURRIES  17  11  77 SW20G26   29.96R WCI   1
NEW RICHMOND   FLURRIES  18  10  72 W20G29    29.93S WCI   1
OSCEOLA        CLOUDY    18  10  70 W22G29    29.97R WCI   1
$$

WIZ003>005-009-010-017-018-071500-
NORTH CENTRAL WISCONSIN

CITY           SKY/WX    TMP DP  RH WIND       PRES   REMARKS
MANITOWISH WTR FLURRIES  15  11  82 SW12G21   29.73R WCI   2
ARBOR VITAE    LGT SNOW  18  13  81 SW14G25   29.74R WCI   4
WOODRUFF       LGT SNOW  18  13  81 SW14G25   29.74R WCI   4
RHINELANDER    LGT SNOW  17  12  80 W16G25    29.78R WCI   2
EAGLE RIVER    LGT SNOW  17  11  78 SW18G25   29.73R WCI   0
LAND O LAKES   LGT SNOW  18  13  82 SW12G21   29.72R WCI   5
PHILLIPS       LGT SNOW  15  10  82 W13G28    29.79R WCI   1
TOMAHAWK       LGT SNOW  16  11  80 SW9G16    29.82R WCI   4
MEDFORD        LGT SNOW  14   9  80 W17G30    29.84S WCI  -3
MERRILL        LGT SNOW  16  11  81 W17G24    29.86R WCI   0
$$

WIZ029-030-035-036-043>047-071500-
CENTRAL WISCONSIN

CITY           SKY/WX    TMP DP  RH WIND       PRES   REMARKS
WAUSAU         LGT SNOW  16  11  80 W15G25    29.87R WCI   1
MOSINEE        NOT AVBL
MARSHFIELD     FLURRIES  16  10  77 W15       29.90R WCI   1
STEVENS POINT  CLOUDY    16  10  78 W17G23    29.92S WCI   0
WAUPACA        CLOUDY    21  14  72 W18G30    29.94R WCI   7
WAUTOMA        CLOUDY    18  12  77 W17       29.96R WCI   3
WISC RAPIDS    CLOUDY    17  11  77 W16G23    29.95R WCI   2
CAMP DOUGLAS   FLURRIES  18  10  73 W13       29.99R WCI   4
$$

WIZ011>013-019>022-031-037>040-048>050-071500-
NORTHEAST WISCONSIN

CITY           SKY/WX    TMP DP  RH WIND       PRES   REMARKS
ANTIGO         LGT SNOW  15  11  82 W23       29.83R WCI  -3
SHAWANO        CLOUDY    23  14  69 W15G23    29.89S WCI  10
OCONTO         CLOUDY    22  13  68 W23G33    29.88R WCI   5
STURGEON BAY   CLOUDY    23  16  74 SW21G26   29.86R WCI   8
GREEN BAY      CLOUDY    24  15  68 W17G26    29.91R WCI  11
MANITOWOC      CLEAR     24  16  71 W10G25    29.92R WCI  14
APPLETON       CLOUDY    19  12  73 W20G25    29.91R WCI   4
CLINTONVILLE   CLOUDY    21  12  68 W16G22    29.90S WCI   7
OSHKOSH        MOCLDY    20  12  71 W13G23    29.95R WCI   7
$$

WIZ032>034-041-042-053>061-071500-
SOUTHWEST WISCONSIN

CITY           SKY/WX    TMP DP  RH WIND       PRES   REMARKS
LA CROSSE      CLOUDY    19  10  68 W13       30.06R WCI   6
SPARTA         CLOUDY    18  12  79 W13       30.02S WCI   4
VIROQUA        CLOUDY    14   9  81 W16G23    30.00S WCI  -2
BOSCOBEL       CLOUDY    19  11  70 W12G18    30.08S WCI   7
PRAIRIE DU CHI PTCLDY    17   9  71 W9        30.11R WCI   6
PLATTEVILLE    MOCLDY    17  13  82 W14       30.07S WCI   3
$$

WIZ056-057-062-063-064-067-068-071500-
SOUTH CENTRAL WISCONSIN

CITY           SKY/WX    TMP DP  RH WIND       PRES   REMARKS
REEDSBURG      CLOUDY    17  11  78 W14       30.01S WCI   3
BARABOO/DELLS  PTCLDY    17  11  77 W17G24    29.99S WCI   2
LONE ROCK      MOCLDY    18  11  74 W9G21     30.06R WCI   7
MINERAL POINT  CLOUDY    19  14  79 W15       30.03S WCI   5
MADISON        CLOUDY    19  12  74 W8G18     30.02R WCI   9
MIDDLETON      NOT AVBL
WATERTOWN      CLOUDY    20  15  83 SW9G16    30.01R WCI   9
MONROE         CLOUDY    19  14  79 W15G24    30.04R WCI   5
JANESVILLE     MOCLDY    21  16  79 W14G20    30.05R WCI   8
$$

WIZ051-052-058>065-066-070>072-071500-
SOUTHEAST WISCONSIN

CITY           SKY/WX    TMP DP  RH WIND       PRES   REMARKS
MILWAUKEE      MOCLDY    23  14  68 W15G22    30.01R WCI  10
WAUKESHA       PTCLDY    19  14  79 W16G24    30.00S WCI   5
MILWAUKEE/TIMM CLEAR     21  14  73 W12G23    30.00R WCI   9
RACINE         MOCLDY    22  14  71 W10G25    30.03R WCI  11
BURLINGTON     CLOUDY    21  16  81 W12G18    30.03S WCI   9
KENOSHA        MOCLDY    23  16  74 W18G25    30.03R WCI   9
FOND DU LAC    PTCLDY    21  13  71 SW14G20   29.97R WCI   8
SHEBOYGAN      PTCLDY    22  15  75 W18G31    29.93R WCI   7
WEST BEND      PTCLDY    21  18  86 W14G22    29.96S WCI   8
JUNEAU         PTCLDY    18  13  79 SW20      30.00R WCI   2
$$

LSZ147-162-071500-
LAKE SUPERIOR

STATION/POSITION TIME  TEMP    WIND        PRES    WAVE
                       AIR SEA DIR/SP/G            HT/PER
                 (UTC) (F)     (DEG/KT/KT) (MB)    (FT/S)
DEVILS ISLAND    1400   25     250/ 36/ 44 1006.1R
PORT WING        1340   20     230/ 13/ 22 1008.1R
SAXON HARBOR     1340   21     230/ 12/ 23 1007.8R
$$

LMZ867-665-643>646-071500-
LAKE MICHIGAN

STATION/POSITION TIME  TEMP    WIND        PRES    WAVE
                       AIR SEA DIR/SP/G            HT/PER
                 (UTC) (F)     (DEG/KT/KT) (MB)    (FT/S)
CHAMBERS ISLAND  1330   24     210/ 13/ 24 1009.8R
NORTHPORT PIER   1344   26     220/  5/ 19 1010.2R
SISTER BAY       1309   27     290/ 24/ 29   N/A
ALGOMA LAKESHORE 1221          280/ 15/ 26   N/A
KEWAUNEE LAKESHO 1354   23     300/ 17/ 24 1012.3R
SHEBOYGAN LAKESH 1400   24     260/ 12/ 15 1014.8R
PORT WASHINGTON  1340   23     250/ 13/ 20 1015.6S
MILWAUKEE LAKESH 1400   24     260/ 12/ 18   N/A
KENOSHA   LAKESH 1400   24     250/ 14/ 20 1017.3
$$

TC  - TEMPERATURE IN CELSIUS
VSB - VISIBILITY IN STATUTE MILES
WCI - WIND CHILL INDEX
HX  - HEAT INDEX





USA.gov is the U.S. government's official web portal to all federal, state and local government web resources and services.